Location: Jasper
(52.8737°N, 118.0814°W)
Time: 10:19:31
(UTC-07:00)

ISS - Visible Passes

Search period start: 23 January 2020 00:00
Search period end: 02 February 2020 00:00
Orbit: 415 x 422 km, 51.6° (Epoch: 23 January)

Date Brightness Start Highest point End Pass type
(mag) Time Alt. Az. Time Alt. Az. Time Alt. Az.
23 Jan -2.1 18:56:52 10° SSW 18:59:28 21° SSE 19:00:15 19° SE visible
23 Jan -0.8 20:32:31 10° WSW 20:33:13 15° WSW 20:33:13 15° WSW visible
24 Jan -1.5 18:09:58 10° S 18:11:59 15° SE 18:14:00 10° ESE visible
24 Jan -2.8 19:44:57 10° SW 19:47:34 40° SSW 19:47:34 40° SSW visible
25 Jan -2.8 18:57:27 10° SW 19:00:36 36° SSE 19:01:53 26° ESE visible
25 Jan -1.0 20:33:48 10° W 20:34:50 18° WSW 20:34:50 18° WSW visible
26 Jan -2.3 18:10:04 10° SSW 18:13:00 28° SSE 18:15:56 10° E visible
26 Jan -3.4 19:46:08 10° WSW 19:49:06 59° SSW 19:49:06 59° SSW visible
27 Jan -3.4 18:58:28 10° WSW 19:01:47 57° SSE 19:03:20 28° E visible
27 Jan -1.1 20:35:06 10° W 20:36:17 20° W 20:36:17 20° W visible
28 Jan -3.1 18:10:51 10° SW 18:14:07 46° SSE 18:17:23 10° E visible
28 Jan -3.6 19:47:23 10° W 19:50:30 68° SW 19:50:30 68° SW visible
29 Jan -3.7 18:59:39 10° W 19:03:02 72° S 19:04:43 27° E visible
29 Jan -1.1 20:36:24 10° W 20:37:40 21° W 20:37:40 21° W visible
30 Jan -3.5 18:11:56 10° WSW 18:15:18 66° S 18:18:39 10° E visible
30 Jan -3.5 19:48:38 10° W 19:51:54 63° SSW 19:51:54 63° SSW visible
31 Jan -3.6 19:00:53 10° W 19:04:16 70° S 19:06:08 24° ESE visible
31 Jan -1.1 20:37:42 10° W 20:39:06 20° WSW 20:39:06 20° WSW visible
01 Feb -3.6 18:13:06 10° W 18:16:30 73° S 18:19:52 10° E visible
01 Feb -3.0 19:49:53 10° W 19:53:07 43° SSW 19:53:23 42° S visible
